Weather Roundup
Issued by NWS Springfield, MO

Home | Current Version | Previous Version | Text Only | Print | Product List | Glossary On
Versions: 1 2 3 4 5 6 7 8 9 10 11 12 13 14 15 16 17 18 19 20 21 22 23 24 25 26 27 28 29 30 31 32 33 34 35 36 37 38 39 40 41 42 43 44 45 46 47 48 49 50
000
NZUS99 KSGF 140507
HRRSGF

HOURLY WEATHER
NATIONAL WEATHER SERVICE SPRINGFIELD MO
1200 AM CDT MON JUL 14 2014

......SGF CWA......

CITY           SKY/WX    TMP DP  RH WIND       PRES   REMARKS
SPRINGFIELD    CLOUDY    77  71  82 E6        29.99F THUNDER
JOPLIN         PTCLDY    77  72  84 NE3       29.98S
WEST PLAINS    MOCLDY    80  72  76 SW6       30.00R
ROLLA          CLOUDY    71  69  93 CALM      29.97S
OSAGE BEACH    CLOUDY    72  70  94 CALM      29.97S
BRANSON        MOCLDY    79  70  73 CALM      30.00R

......SURROUNDING SGF CWA......

CITY           SKY/WX    TMP DP  RH WIND       PRES   REMARKS
CHANUTE        PTCLDY    76  71  85 NW3       29.99R
PARSONS        PTCLDY    75  72  90 CALM      30.00R
COFFEYVILLE    MOCLDY    79  72  79 SE3       29.98S
EMPORIA        PTCLDY    70  66  87 CALM      30.02S
GROVE OK       PTCLDY    73  73 100 CALM      29.98R
ROGERS AR      PTCLDY    80  70  71 SW7       30.00R
SILOAM SPRINGS CLEAR     79  66  65 W6        30.00S
HARRISON AR    PTCLDY    81  67  62 S5        29.99S
NEAR YELLVILLE CLEAR     79  68  69 S5        29.97S

......KANSAS AND MISSOURI......

CITY           SKY/WX    TMP DP  RH WIND       PRES   REMARKS
KANSAS CTY INT PTCLDY    73  69  87 SW6       29.99F
DOWNTOWN KC    CLEAR     77  69  76 CALM      29.97F
COLUMBIA       PTCLDY    71  71 100 NW5       29.96F
SEDALIA        CLEAR     70  69  97 NW6       29.98S FOG
ST JOSEPH      CLEAR     75  72  90 CALM      29.98S
ST LOUIS       CLOUDY    78  74  87 S5        29.96R
SPIRIT OF STL  CLOUDY    75  73  93 CALM      29.93S
KIRKSVILLE     CLEAR     69  67  93 CALM      29.98R
WICHITA        MOCLDY    76  69  79 W3        30.03S
TOPEKA         CLEAR     74  70  87 CALM      29.99F
OLATHE         CLEAR     75  67  76 NW3       29.99S

......TENNESSEE......

CITY           SKY/WX    TMP DP  RH WIND       PRES   REMARKS
MEMPHIS        PTCLDY    82  74  76 S7        29.99F
NASHVILLE      PTCLDY    82  72  71 S8        30.00F

......ARKANSAS.......

CITY           SKY/WX    TMP DP  RH WIND       PRES   REMARKS
FAYETTEVILLE   CLEAR     77  71  82 SW5       29.99S
FT SMITH       CLEAR     82  68  62 S3        29.94F
LITTLE ROCK    CLEAR     80  71  74 S6        29.97F

......OKLAHOMA.......

CITY           SKY/WX    TMP DP  RH WIND       PRES   REMARKS
TULSA          CLOUDY    76  70  82 W6        29.94F
PONCA CITY     PTCLDY    78  71  79 NE5       29.99F
MCALESTER      CLEAR     81  68  64 SW3       29.97F
OKLAHOMA CITY  MOCLDY    83  63  50 N5        30.00F

......IOWA............

CITY           SKY/WX    TMP DP  RH WIND       PRES   REMARKS
DES MOINES     MOCLDY    74  65  73 SW6       29.93F
QUAD CITIES    CLEAR     66  64  93 CALM      29.92S

......ILLINOIS........

CITY           SKY/WX    TMP DP  RH WIND       PRES   REMARKS
QUINCY         CLEAR     71  67  87 S5        29.94R
CHICAGO        PTCLDY    72  50  45 NW10      29.90S




USA.gov is the U.S. government's official web portal to all federal, state and local government web resources and services.